QPF
0.07 0.10 0.11 0.16 0.17 0.15 0.14 0.12 0.10 0.08 0.08 0.08 0.09 0.09 0.09 0.10 0.10 0.08 0.09 0.11 0.10 0.09 0.08 0.07 0.05 0.04 0.04 0.03 0.03 0.02 0.02 0.03 0.03 0.02 0.02 0.02 0.04 0.04 0.03 0.03 0.02 0.02 0.02
0.05 0.06 0.05 0.08 0.11 0.12 0.11 0.11 0.11 0.10 0.10 0.10 0.10 0.10 0.10 0.10 0.11 0.10 0.10 0.13 0.14 0.11 0.09 0.08 0.07 0.07 0.07 0.06 0.05 0.04 0.03 0.04 0.04 0.03 0.03 0.02 0.03 0.04 0.04 0.03 0.03 0.02 0.02
0.05 0.05 0.03 0.04 0.06 0.08 0.09 0.09 0.09 0.10 0.11 0.10 0.11 0.10 0.10 0.10 0.12 0.12 0.13 0.15 0.14 0.14 0.12 0.09 0.07 0.08 0.08 0.08 0.07 0.06 0.05 0.05 0.04 0.05 0.06 0.07 0.08 0.08 0.07 0.05 0.04 0.03 0.02
0.03 0.03 0.03 0.03 0.04 0.07 0.09 0.09 0.11 0.12 0.13 0.15 0.14 0.13 0.13 0.14 0.14 0.14 0.15 0.16 0.12 0.11 0.12 0.11 0.09 0.07 0.09 0.10 0.10 0.10 0.11 0.10 0.09 0.08 0.08 0.09 0.12 0.11 0.10 0.09 0.06 0.05 0.04
0.03 0.03 0.03 0.05 0.07 0.10 0.12 0.13 0.13 0.15 0.17 0.17 0.16 0.15 0.15 0.18 0.17 0.15 0.14 0.15 0.14 0.11 0.10 0.11 0.10 0.10 0.10 0.09 0.09 0.10 0.10 0.11 0.12 0.13 0.12 0.11 0.10 0.10 0.11 0.09 0.08 0.07 0.05
0.03 0.02 0.02 0.03 0.05 0.08 0.10 0.12 0.14 0.16 0.18 0.16 0.11 0.11 0.13 0.16 0.19 0.21 0.19 0.19 0.19 0.14 0.13 0.15 0.15 0.13 0.13 0.13 0.13 0.11 0.10 0.10 0.11 0.12 0.11 0.10 0.09 0.08 0.08 0.07 0.06 0.05 0.04
0.02 0.02 0.01 0.02 0.02 0.04 0.06 0.08 0.09 0.10 0.12 0.12 0.10 0.10 0.09 0.12 0.15 0.15 0.15 0.15 0.16 0.15 0.15 0.17 0.16 0.15 0.15 0.13 0.12 0.11 0.10 0.09 0.09 0.09 0.10 0.09 0.07 0.05 0.04 0.04 0.03 0.04 0.03
0.01 0.02 0.02 0.02 0.02 0.03 0.03 0.03 0.03 0.05 0.07 0.10 0.11 0.10 0.13 0.17 0.18 0.16 0.15 0.13 0.14 0.14 0.13 0.12 0.13 0.14 0.13 0.11 0.09 0.07 0.06 0.06 0.05 0.04 0.04 0.05 0.04 0.03 0.02 0.02 0.02 0.02 0.02
0.01 0.02 0.03 0.04 0.04 0.04 0.04 0.04 0.03 0.04 0.06 0.10 0.14 0.15 0.18 0.21 0.22 0.21 0.19 0.17 0.17 0.16 0.16 0.15 0.13 0.13 0.12 0.10 0.07 0.07 0.06 0.06 0.06 0.06 0.06 0.06 0.06 0.05 0.04 0.03 0.03 0.03 0.04
0.01 0.01 0.02 0.03 0.04 0.03 0.03 0.04 0.04 0.05 0.06 0.08 0.11 0.12 0.14 0.16 0.19 0.18 0.15 0.15 0.16 0.16 0.15 0.13 0.12 0.11 0.12 0.12 0.11 0.10 0.09 0.07 0.05 0.05 0.05 0.05 0.04 0.04 0.04 0.03 0.03 0.03 0.04
0.02 0.01 0.01 0.02 0.03 0.03 0.02 0.03 0.04 0.06 0.07 0.07 0.08 0.09 0.10 0.11 0.13 0.13 0.13 0.12 0.12 0.11 0.10 0.10 0.11 0.11 0.11 0.11 0.10 0.09 0.09 0.07 0.06 0.05 0.05 0.04 0.03 0.03 0.02 0.01 0.01 0.01 0.02
0.04 0.04 0.04 0.04 0.03 0.03 0.02 0.03 0.04 0.05 0.06 0.07 0.08 0.09 0.10 0.10 0.10 0.08 0.08 0.10 0.10 0.08 0.08 0.09 0.11 0.12 0.12 0.11 0.11 0.12 0.11 0.10 0.08 0.07 0.06 0.05 0.04 0.03 0.02 0.01 0.01 0.00 0.00
0.05 0.06 0.06 0.06 0.04 0.04 0.03 0.04 0.04 0.05 0.05 0.06 0.07 0.07 0.07 0.07 0.06 0.07 0.07 0.09 0.10 0.08 0.09 0.09 0.09 0.10 0.10 0.11 0.13 0.12 0.10 0.08 0.07 0.06 0.05 0.04 0.03 0.02 0.01 0.01 0.01 0.01 0.00
0.05 0.04 0.04 0.05 0.06 0.06 0.05 0.05 0.04 0.04 0.05 0.04 0.06 0.07 0.08 0.07 0.07 0.07 0.08 0.09 0.11 0.12 0.12 0.12 0.11 0.10 0.10 0.10 0.09 0.08 0.06 0.05 0.05 0.04 0.04 0.03 0.02 0.01 0.01 0.01 0.01 0.01 0.01
0.04 0.03 0.03 0.04 0.04 0.04 0.04 0.04 0.04 0.03 0.05 0.06 0.08 0.10 0.12 0.13 0.13 0.13 0.12 0.11 0.10 0.10 0.10 0.11 0.11 0.10 0.09 0.07 0.06 0.05 0.05 0.05 0.04 0.03 0.02 0.01 0.01 0.01 0.00 0.00 0.00 0.00 0.00
0.04 0.04 0.04 0.03 0.04 0.05 0.04 0.04 0.03 0.03 0.04 0.06 0.08 0.09 0.11 0.14 0.15 0.14 0.14 0.13 0.12 0.12 0.11 0.11 0.10 0.09 0.07 0.07 0.05 0.04 0.03 0.02 0.02 0.01 0.01 0.00 0.00 0.00 0.00 0.00 0.00 0.00 0.00
0.04 0.05 0.05 0.04 0.05 0.05 0.04 0.04 0.04 0.04 0.04 0.06 0.07 0.07 0.07 0.08 0.07 0.08 0.09 0.11 0.11 0.09 0.08 0.07 0.06 0.05 0.04 0.03 0.02 0.02 0.01 0.01 0.00 0.00 0.00 0.00 0.00 0.00 0.00 0.00 0.00 0.00 0.00
0.04 0.05 0.06 0.06 0.06 0.06 0.06 0.05 0.05 0.05 0.05 0.05 0.07 0.07 0.07 0.07 0.06 0.06 0.06 0.05 0.04 0.03 0.03 0.02 0.02 0.02 0.01 0.01 0.01 0.00 0.00 0.00 0.00 0.00 0.00 0.00 0.00 0.00 0.00 0.00 0.00 0.00 0.00
0.04 0.05 0.07 0.09 0.11 0.11 0.10 0.09 0.07 0.06 0.05 0.04 0.04 0.04 0.06 0.07 0.08 0.08 0.06 0.04 0.03 0.03 0.03 0.02 0.02 0.01 0.01 0.00 0.00 0.00 0.00 0.00 0.00 0.00 0.00 0.00 0.00 0.00 0.00 0.00 0.00 0.00 0.00
0.02 0.05 0.06 0.08 0.09 0.11 0.12 0.12 0.11 0.10 0.09 0.08 0.06 0.05 0.06 0.08 0.08 0.07 0.06 0.04 0.04 0.04 0.03 0.02 0.01 0.01 0.01 0.00 0.00 0.00 0.00 0.00 0.00 0.00 0.00 0.00 0.00 0.00 0.00 0.00 0.00 0.00 0.00
0.02 0.03 0.05 0.06 0.07 0.07 0.08 0.10 0.10 0.09 0.09 0.08 0.07 0.07 0.07 0.06 0.06 0.05 0.04 0.03 0.03 0.02 0.02 0.01 0.01 0.01 0.00 0.00 0.00 0.00 0.00 0.00 0.00 0.00 0.00 0.00 0.00 0.00 0.00 0.00 0.00 0.00 0.00
0.03 0.04 0.05 0.06 0.06 0.06 0.07 0.09 0.10 0.09 0.08 0.08 0.07 0.07 0.07 0.05 0.04 0.03 0.02 0.02 0.02 0.01 0.01 0.01 0.01 0.01 0.01 0.01 0.00 0.00 0.00 0.00 0.00 0.00 0.00 0.00 0.00 0.00 0.00 0.00 0.00 0.00 0.00
0.05 0.05 0.06 0.06 0.05 0.05 0.05 0.06 0.06 0.07 0.07 0.07 0.07 0.07 0.05 0.05 0.04 0.04 0.03 0.03 0.03 0.02 0.02 0.02 0.01 0.01 0.00 0.00 0.00 0.00 0.00 0.00 0.00 0.00 0.00 0.00 0.00 0.00 0.00 0.00 0.00 0.00 0.00
0.03 0.03 0.02 0.02 0.02 0.02 0.02 0.02 0.02 0.02 0.03 0.03 0.03 0.03 0.03 0.03 0.03 0.03 0.02 0.02 0.02 0.01 0.01 0.01 0.00 0.00 0.00 0.00 0.00 0.00 0.00 0.00 0.00 0.00 0.00 0.00 0.00 0.00 0.00 0.00 0.00 0.00 0.00
0.01 0.01 0.01 0.01 0.01 0.01 0.01 0.01 0.01 0.01 0.01 0.01 0.01 0.01 0.01 0.01 0.01 0.01 0.01 0.01 0.01 0.01 0.00 0.00 0.00 0.00 0.00 0.00 0.00 0.00 0.00 0.00 0.00 0.00 0.00 0.00 0.00 0.00 0.00 0.00 0.00 0.00 0.00
0.00 0.01 0.01 0.01 0.01 0.01 0.01 0.01 0.01 0.01 0.01 0.01 0.01 0.01 0.01 0.01 0.01 0.00 0.00 0.00 0.00 0.00 0.00 0.00 0.00 0.00 0.00 0.00 0.00 0.00 0.00 0.00 0.00 0.00 0.00 0.00 0.00 0.00 0.00 0.00 0.00 0.00 0.00
MSLP
1012.21 1012.55 1012.87 1013.13 1013.29 1013.32 1013.23 1013.05 1012.83 1012.62 1012.45 1012.38 1012.42 1012.57 1012.82 1013.16 1013.55 1013.99 1014.45 1014.91 1015.36 1015.78 1016.18 1016.54 1016.87 1017.16 1017.45 1017.73 1018.04 1018.38 1018.77 1019.20 1019.66 1020.12 1020.55 1020.90 1021.15 1021.29 1021.32 1021.26 1021.15 1021.03 1020.94
1012.44 1012.68 1012.89 1013.03 1013.06 1012.96 1012.74 1012.45 1012.11 1011.79 1011.52 1011.36 1011.33 1011.44 1011.68 1012.04 1012.51 1013.04 1013.62 1014.22 1014.80 1015.34 1015.83 1016.26 1016.62 1016.95 1017.24 1017.54 1017.87 1018.26 1018.72 1019.26 1019.84 1020.43 1020.99 1021.46 1021.81 1022.02 1022.08 1022.02 1021.87 1021.69 1021.53
1012.80 1012.96 1013.06 1013.07 1012.95 1012.70 1012.34 1011.89 1011.42 1010.97 1010.59 1010.33 1010.23 1010.30 1010.54 1010.95 1011.49 1012.14 1012.86 1013.61 1014.35 1015.05 1015.67 1016.20 1016.64 1017.02 1017.34 1017.67 1018.02 1018.44 1018.95 1019.55 1020.20 1020.88 1021.52 1022.08 1022.51 1022.77 1022.87 1022.81 1022.65 1022.44 1022.22
1013.24 1013.35 1013.36 1013.24 1012.99 1012.58 1012.07 1011.48 1010.86 1010.28 1009.80 1009.45 1009.29 1009.34 1009.58 1010.03 1010.66 1011.42 1012.28 1013.20 1014.10 1014.96 1015.73 1016.39 1016.93 1017.38 1017.76 1018.11 1018.48 1018.92 1019.44 1020.05 1020.73 1021.44 1022.12 1022.73 1023.19 1023.50 1023.62 1023.59 1023.43 1023.21 1022.98
1013.74 1013.82 1013.76 1013.55 1013.18 1012.65 1012.00 1011.29 1010.56 1009.88 1009.31 1008.90 1008.69 1008.72 1008.98 1009.46 1010.16 1011.02 1012.00 1013.05 1014.10 1015.11 1016.02 1016.80 1017.45 1017.98 1018.42 1018.80 1019.19 1019.62 1020.12 1020.71 1021.37 1022.06 1022.73 1023.34 1023.81 1024.14 1024.29 1024.28 1024.15 1023.95 1023.72
1014.22 1014.31 1014.23 1013.97 1013.52 1012.91 1012.18 1011.39 1010.59 1009.86 1009.24 1008.80 1008.58 1008.60 1008.86 1009.37 1010.11 1011.03 1012.09 1013.23 1014.38 1015.50 1016.51 1017.40 1018.15 1018.75 1019.23 1019.65 1020.04 1020.45 1020.91 1021.45 1022.05 1022.68 1023.31 1023.88 1024.34 1024.66 1024.83 1024.86 1024.77 1024.61 1024.42
1014.68 1014.81 1014.74 1014.47 1014.00 1013.36 1012.61 1011.80 1011.00 1010.27 1009.66 1009.24 1009.02 1009.05 1009.32 1009.84 1010.57 1011.50 1012.58 1013.75 1014.94 1016.10 1017.18 1018.13 1018.93 1019.58 1020.11 1020.54 1020.93 1021.31 1021.73 1022.20 1022.72 1023.27 1023.83 1024.33 1024.76 1025.07 1025.25 1025.31 1025.27 1025.16 1025.02
1015.08 1015.27 1015.24 1015.00 1014.57 1013.97 1013.27 1012.52 1011.78 1011.12 1010.58 1010.21 1010.04 1010.08 1010.35 1010.85 1011.55 1012.43 1013.46 1014.58 1015.74 1016.89 1017.96 1018.92 1019.74 1020.42 1020.97 1021.41 1021.79 1022.15 1022.51 1022.91 1023.35 1023.82 1024.28 1024.72 1025.09 1025.38 1025.56 1025.65 1025.66 1025.60 1025.52
1015.41 1015.66 1015.70 1015.54 1015.18 1014.68 1014.09 1013.47 1012.86 1012.32 1011.90 1011.62 1011.51 1011.59 1011.86 1012.31 1012.95 1013.74 1014.66 1015.68 1016.74 1017.80 1018.81 1019.73 1020.53 1021.20 1021.76 1022.20 1022.58 1022.91 1023.24 1023.58 1023.95 1024.33 1024.72 1025.08 1025.40 1025.65 1025.83 1025.93 1025.97 1025.97 1025.94
1015.67 1015.98 1016.10 1016.02 1015.79 1015.43 1015.00 1014.55 1014.12 1013.75 1013.48 1013.33 1013.31 1013.42 1013.68 1014.09 1014.63 1015.30 1016.08 1016.94 1017.86 1018.79 1019.70 1020.54 1021.29 1021.94 1022.48 1022.92 1023.29 1023.62 1023.92 1024.22 1024.53 1024.85 1025.16 1025.46 1025.73 1025.95 1026.11 1026.21 1026.27 1026.30 1026.29
1015.84 1016.20 1016.40 1016.44 1016.34 1016.15 1015.91 1015.66 1015.44 1015.27 1015.18 1015.16 1015.23 1015.39 1015.65 1015.99 1016.44 1016.97 1017.59 1018.29 1019.05 1019.82 1020.60 1021.34 1022.02 1022.63 1023.15 1023.59 1023.96 1024.29 1024.58 1024.86 1025.13 1025.40 1025.67 1025.91 1026.13 1026.31 1026.44 1026.53 1026.59 1026.62 1026.63
1015.94 1016.35 1016.62 1016.77 1016.82 1016.81 1016.77 1016.74 1016.73 1016.76 1016.83 1016.95 1017.12 1017.33 1017.58 1017.87 1018.22 1018.63 1019.10 1019.64 1020.23 1020.86 1021.50 1022.14 1022.75 1023.31 1023.81 1024.24 1024.62 1024.95 1025.24 1025.51 1025.77 1026.01 1026.23 1026.44 1026.61 1026.75 1026.85 1026.92 1026.95 1026.96 1026.95
1015.99 1016.43 1016.77 1017.03 1017.23 1017.39 1017.54 1017.71 1017.90 1018.11 1018.34 1018.59 1018.84 1019.08 1019.33 1019.58 1019.85 1020.15 1020.50 1020.90 1021.36 1021.86 1022.39 1022.93 1023.47 1023.99 1024.46 1024.89 1025.27 1025.61 1025.91 1026.18 1026.43 1026.66 1026.86 1027.03 1027.17 1027.27 1027.33 1027.36 1027.36 1027.33 1027.28
1016.02 1016.49 1016.89 1017.25 1017.58 1017.89 1018.22 1018.56 1018.91 1019.28 1019.64 1019.98 1020.29 1020.57 1020.81 1021.03 1021.25 1021.48 1021.73 1022.03 1022.39 1022.79 1023.24 1023.71 1024.19 1024.67 1025.12 1025.54 1025.92 1026.26 1026.57 1026.84 1027.09 1027.31 1027.49 1027.64 1027.75 1027.82 1027.85 1027.84 1027.79 1027.72 1027.62
1016.06 1016.56 1017.02 1017.47 1017.91 1018.35 1018.81 1019.29 1019.77 1020.24 1020.69 1021.09 1021.45 1021.74 1021.98 1022.19 1022.36 1022.54 1022.75 1022.99 1023.28 1023.63 1024.02 1024.44 1024.89 1025.33 1025.76 1026.17 1026.54 1026.88 1027.19 1027.46 1027.70 1027.91 1028.08 1028.22 1028.31 1028.36 1028.36 1028.31 1028.23 1028.11 1027.96
1016.16 1016.68 1017.20 1017.72 1018.25 1018.79 1019.35 1019.92 1020.48 1021.01 1021.50 1021.94 1022.31 1022.60 1022.84 1023.03 1023.19 1023.35 1023.53 1023.75 1024.02 1024.34 1024.70 1025.10 1025.52 1025.94 1026.35 1026.74 1027.10 1027.42 1027.72 1027.98 1028.21 1028.42 1028.58 1028.71 1028.79 1028.83 1028.81 1028.74 1028.63 1028.48 1028.30
1016.33 1016.88 1017.44 1018.02 1018.62 1019.23 1019.85 1020.47 1021.06 1021.62 1022.12 1022.55 1022.91 1023.19 1023.42 1023.60 1023.76 1023.92 1024.11 1024.33 1024.60 1024.92 1025.27 1025.66 1026.06 1026.47 1026.85 1027.22 1027.55 1027.86 1028.14 1028.39 1028.61 1028.80 1028.97 1029.09 1029.17 1029.20 1029.19 1029.11 1028.99 1028.82 1028.62
1016.60 1017.17 1017.76 1018.37 1019.01 1019.66 1020.30 1020.93 1021.53 1022.08 1022.56 1022.97 1023.30 1023.57 1023.78 1023.96 1024.13 1024.30 1024.50 1024.74 1025.03 1025.36 1025.72 1026.11 1026.50 1026.89 1027.25 1027.60 1027.91 1028.19 1028.45 1028.68 1028.89 1029.07 1029.23 1029.36 1029.44 1029.48 1029.47 1029.41 1029.30 1029.13 1028.92
1016.95 1017.52 1018.13 1018.76 1019.41 1020.06 1020.70 1021.32 1021.90 1022.41 1022.86 1023.24 1023.54 1023.79 1023.99 1024.17 1024.34 1024.53 1024.76 1025.03 1025.33 1025.68 1026.06 1026.44 1026.83 1027.20 1027.55 1027.87 1028.16 1028.42 1028.66 1028.87 1029.07 1029.24 1029.40 1029.53 1029.62 1029.68 1029.68 1029.64 1029.54 1029.39 1029.19
1017.35 1017.92 1018.51 1019.13 1019.77 1020.41 1021.03 1021.62 1022.16 1022.64 1023.05 1023.39 1023.67 1023.90 1024.09 1024.28 1024.47 1024.68 1024.93 1025.22 1025.55 1025.91 1026.29 1026.68 1027.06 1027.43 1027.76 1028.06 1028.33 1028.57 1028.79 1028.99 1029.18 1029.35 1029.51 1029.64 1029.74 1029.81 1029.83 1029.80 1029.72 1029.59 1029.40
1017.77 1018.30 1018.87 1019.47 1020.07 1020.68 1021.27 1021.82 1022.33 1022.77 1023.15 1023.47 1023.73 1023.95 1024.15 1024.34 1024.55 1024.78 1025.05 1025.36 1025.70 1026.07 1026.45 1026.84 1027.22 1027.57 1027.89 1028.18 1028.44 1028.67 1028.88 1029.08 1029.26 1029.42 1029.57 1029.71 1029.81 1029.88 1029.91 1029.89 1029.82 1029.70 1029.53
1018.16 1018.65 1019.18 1019.73 1020.30 1020.86 1021.41 1021.93 1022.41 1022.83 1023.19 1023.50 1023.76 1023.99 1024.20 1024.41 1024.63 1024.87 1025.15 1025.47 1025.81 1026.18 1026.56 1026.94 1027.30 1027.64 1027.96 1028.24 1028.49 1028.72 1028.93 1029.12 1029.30 1029.47 1029.61 1029.74 1029.84 1029.90 1029.92 1029.90 1029.83 1029.71 1029.53
1018.49 1018.93 1019.41 1019.91 1020.43 1020.96 1021.48 1021.97 1022.43 1022.84 1023.20 1023.51 1023.79 1024.03 1024.26 1024.48 1024.71 1024.97 1025.25 1025.56 1025.89 1026.25 1026.61 1026.97 1027.31 1027.64 1027.95 1028.23 1028.48 1028.71 1028.92 1029.12 1029.30 1029.46 1029.60 1029.71 1029.80 1029.85 1029.85 1029.81 1029.72 1029.58 1029.39
1018.75 1019.14 1019.56 1020.02 1020.50 1020.99 1021.48 1021.96 1022.41 1022.82 1023.19 1023.52 1023.81 1024.07 1024.32 1024.56 1024.80 1025.06 1025.33 1025.62 1025.94 1026.26 1026.59 1026.92 1027.25 1027.55 1027.85 1028.12 1028.38 1028.61 1028.83 1029.03 1029.21 1029.37 1029.50 1029.60 1029.67 1029.69 1029.67 1029.60 1029.48 1029.31 1029.10
1018.93 1019.27 1019.65 1020.07 1020.52 1020.99 1021.46 1021.92 1022.37 1022.79 1023.17 1023.51 1023.82 1024.11 1024.37 1024.62 1024.86 1025.11 1025.36 1025.63 1025.91 1026.20 1026.49 1026.78 1027.07 1027.36 1027.63 1027.90 1028.15 1028.39 1028.61 1028.81 1029.00 1029.16 1029.28 1029.37 1029.42 1029.42 1029.37 1029.26 1029.11 1028.91 1028.66
1019.03 1019.35 1019.70 1020.09 1020.52 1020.96 1021.42 1021.87 1022.31 1022.73 1023.12 1023.48 1023.81 1024.10 1024.37 1024.62 1024.86 1025.09 1025.32 1025.55 1025.79 1026.03 1026.28 1026.53 1026.78 1027.04 1027.29 1027.54 1027.78 1028.02 1028.24 1028.45 1028.63 1028.79 1028.91 1028.99 1029.02 1029.00 1028.93 1028.80 1028.62 1028.39 1028.11
Thickness
5753 5751 5749 5746 5745 5742 5739 5738 5736 5735 5734 5733 5732 5730 5728 5727 5726 5723 5721 5719 5717 5716 5715 5713 5711 5711 5710 5710 5709 5708 5706 5703 5694 5692 5693 5693 5692 5691 5689 5686 5684 5681 5679
5752 5750 5747 5745 5743 5741 5738 5736 5735 5733 5731 5730 5729 5727 5726 5725 5723 5720 5717 5716 5714 5712 5711 5709 5707 5707 5705 5705 5703 5702 5700 5698 5693 5686 5684 5683 5682 5682 5680 5677 5674 5672 5670
5750 5747 5744 5742 5740 5738 5736 5735 5732 5730 5728 5727 5726 5724 5723 5722 5720 5718 5715 5712 5710 5708 5707 5705 5703 5702 5699 5698 5697 5695 5694 5693 5689 5683 5677 5674 5672 5672 5669 5667 5664 5661 5659
5747 5744 5741 5739 5738 5736 5734 5732 5730 5728 5725 5724 5723 5721 5720 5718 5716 5714 5711 5708 5705 5704 5703 5701 5699 5697 5695 5693 5691 5689 5686 5683 5680 5675 5669 5665 5662 5661 5658 5654 5651 5649 5647
5745 5741 5739 5738 5736 5733 5730 5728 5726 5724 5723 5721 5719 5717 5716 5714 5712 5709 5706 5703 5700 5698 5696 5694 5693 5692 5690 5687 5685 5681 5679 5674 5670 5664 5659 5654 5650 5648 5645 5643 5639 5635 5633
5741 5738 5737 5735 5732 5729 5726 5724 5721 5719 5717 5716 5714 5712 5710 5709 5707 5704 5701 5697 5694 5691 5688 5685 5684 5682 5680 5678 5676 5674 5671 5667 5661 5656 5649 5644 5638 5636 5634 5633 5627 5624 5619
5738 5735 5733 5731 5728 5725 5723 5720 5717 5714 5712 5710 5708 5706 5704 5702 5701 5698 5696 5692 5687 5683 5680 5678 5676 5672 5670 5667 5664 5661 5658 5656 5653 5647 5640 5634 5629 5626 5624 5620 5615 5611 5605
5732 5730 5728 5726 5723 5720 5717 5715 5712 5710 5707 5705 5702 5700 5697 5694 5693 5690 5687 5683 5678 5674 5671 5669 5666 5661 5659 5656 5652 5647 5643 5640 5638 5635 5629 5623 5619 5616 5613 5609 5604 5598 5592
5726 5724 5722 5720 5717 5714 5711 5709 5706 5704 5701 5697 5694 5691 5688 5685 5683 5681 5678 5673 5668 5663 5660 5658 5655 5652 5648 5646 5642 5635 5630 5625 5622 5620 5615 5610 5607 5604 5601 5596 5590 5584 5576
5720 5718 5716 5714 5711 5707 5704 5702 5699 5696 5692 5689 5685 5682 5679 5676 5674 5672 5669 5665 5658 5653 5648 5646 5644 5641 5637 5634 5630 5624 5618 5612 5609 5605 5601 5597 5593 5589 5586 5581 5576 5568 5561
5714 5711 5708 5706 5703 5700 5697 5694 5691 5688 5683 5679 5675 5670 5668 5666 5663 5661 5659 5655 5650 5644 5638 5633 5630 5628 5625 5621 5617 5612 5606 5601 5596 5592 5587 5582 5578 5574 5570 5566 5561 5555 5548
5706 5702 5699 5696 5694 5691 5688 5684 5681 5678 5673 5668 5664 5659 5656 5654 5652 5649 5647 5644 5640 5634 5627 5621 5617 5615 5611 5608 5603 5598 5593 5589 5583 5577 5572 5567 5563 5559 5555 5550 5545 5540 5535
5697 5693 5689 5686 5683 5681 5678 5675 5671 5667 5664 5658 5654 5650 5645 5642 5639 5637 5635 5631 5627 5622 5616 5610 5606 5602 5598 5594 5589 5585 5580 5574 5569 5563 5557 5551 5547 5544 5541 5536 5531 5526 5521
5686 5682 5679 5676 5673 5670 5668 5665 5661 5657 5653 5649 5645 5641 5636 5632 5628 5625 5622 5618 5614 5609 5603 5597 5593 5589 5585 5580 5575 5571 5566 5561 5555 5549 5543 5538 5535 5530 5526 5521 5515 5510 5504
5676 5672 5668 5665 5661 5657 5654 5650 5648 5646 5644 5641 5637 5633 5629 5623 5618 5616 5612 5606 5602 5597 5592 5586 5580 5575 5570 5565 5561 5556 5552 5548 5542 5536 5531 5525 5520 5516 5510 5506 5501 5495 5488
5666 5661 5658 5654 5651 5647 5642 5636 5632 5632 5630 5629 5627 5623 5618 5614 5608 5604 5600 5595 5590 5586 5581 5574 5568 5563 5558 5553 5548 5543 5538 5534 5529 5523 5518 5512 5507 5502 5497 5492 5487 5481 5475
5657 5652 5648 5645 5641 5637 5633 5629 5622 5617 5615 5614 5612 5610 5607 5602 5597 5593 5588 5583 5578 5575 5569 5562 5556 5551 5546 5541 5536 5531 5526 5521 5516 5511 5505 5499 5495 5490 5485 5479 5474 5469 5464
5646 5643 5639 5635 5632 5627 5623 5619 5615 5611 5605 5599 5596 5595 5592 5589 5585 5581 5576 5572 5565 5561 5556 5551 5545 5540 5535 5530 5525 5520 5515 5509 5504 5499 5493 5488 5483 5478 5473 5468 5462 5458 5453
5636 5632 5629 5625 5621 5617 5613 5609 5604 5600 5595 5589 5585 5581 5579 5575 5572 5568 5565 5560 5555 5549 5545 5540 5535 5530 5525 5520 5514 5509 5503 5498 5492 5487 5482 5477 5472 5468 5463 5458 5454 5451 5446
5625 5623 5619 5615 5611 5607 5603 5599 5594 5590 5585 5580 5576 5572 5568 5564 5560 5556 5552 5549 5544 5539 5535 5530 5525 5520 5515 5510 5504 5498 5493 5487 5482 5477 5472 5468 5464 5459 5455 5451 5446 5442 5438
5615 5612 5610 5605 5601 5598 5594 5590 5585 5581 5576 5571 5567 5564 5561 5556 5551 5547 5543 5539 5534 5530 5525 5521 5516 5511 5505 5500 5495 5489 5484 5478 5474 5469 5464 5460 5456 5452 5448 5444 5441 5437 5433
5604 5601 5599 5596 5593 5589 5585 5581 5576 5572 5567 5563 5557 5554 5550 5546 5542 5537 5533 5530 5526 5522 5518 5513 5508 5502 5498 5493 5487 5482 5476 5471 5466 5462 5458 5453 5450 5446 5443 5439 5435 5432 5429
5595 5592 5589 5586 5583 5579 5575 5571 5567 5562 5558 5554 5550 5545 5541 5537 5533 5529 5525 5522 5518 5514 5509 5505 5500 5494 5490 5486 5481 5476 5470 5465 5461 5457 5452 5448 5444 5441 5437 5434 5431 5428 5425
5586 5584 5580 5577 5573 5570 5566 5562 5558 5554 5550 5546 5542 5538 5534 5529 5526 5522 5518 5515 5511 5506 5502 5497 5492 5488 5483 5478 5474 5469 5465 5461 5457 5453 5449 5444 5440 5437 5433 5430 5427 5425 5422
5577 5575 5572 5568 5566 5562 5558 5555 5551 5547 5543 5539 5535 5531 5527 5523 5519 5515 5512 5508 5504 5499 5495 5490 5486 5481 5477 5473 5468 5464 5460 5456 5452 5448 5444 5441 5437 5433 5430 5428 5425 5423 5420
5569 5567 5564 5561 5558 5555 5552 5548 5544 5540 5536 5533 5529 5524 5521 5517 5513 5509 5505 5501 5497 5493 5489 5484 5480 5476 5472 5468 5464 5459 5455 5451 5448 5444 5441 5437 5434 5431 5428 5425 5423 5421 5418